HI1001 TXKF-MDJB

Flight info

Callsign HI1001
Flight time 2h 7m
Altitude 43000
Route GECAL DCT MCOOP/N0486F430 DCT CHYLE M596 POKEG DCT KODIX DCT DHG
Aircraft C750/M-SBDE3FGHRWXY/S

Departure

Time 2026-04-25 20:22
Airport L.F. Wade International Airport (TXKF)

Arrival

Time 2026-04-25 22:30
Airport La Isabela International Airport (MDJB)
Time Latitude Longitude Altitude Speed Heading
2026-04-25 20:15 32.36429 -64.66757 25 ft 0 kts 233°
2026-04-25 20:18 32.36428 -64.66759 25 ft 2 kts 233°
2026-04-25 20:18 32.36397 -64.66784 25 ft 9 kts 201°
2026-04-25 20:19 32.36354 -64.66723 24 ft 14 kts 105°
2026-04-25 20:19 32.36325 -64.66587 26 ft 20 kts 103°
2026-04-25 20:19 32.36289 -64.66436 24 ft 15 kts 114°
2026-04-25 20:19 32.36262 -64.66359 25 ft 7 kts 111°
2026-04-25 20:20 32.36215 -64.66325 24 ft 12 kts 181°
2026-04-25 20:20 32.36149 -64.66388 20 ft 13 kts 272°
2026-04-25 20:20 32.36152 -64.66408 20 ft 0 kts 283°
2026-04-25 20:21 32.36152 -64.66409 20 ft 0 kts 283°
2026-04-25 20:21 32.36152 -64.66411 20 ft 2 kts 283°
2026-04-25 20:22 32.36194 -64.66640 20 ft 81 kts 280°
2026-04-25 20:22 32.36300 -64.67250 23 ft 141 kts 283°
2026-04-25 20:22 32.36631 -64.69149 53 ft 214 kts 284°
2026-04-25 20:22 32.36333 -64.70563 1198 ft 202 kts 224°
2026-04-25 20:23 32.34958 -64.71166 1976 ft 212 kts 189°
2026-04-25 20:23 32.33407 -64.71308 2656 ft 238 kts 183°
2026-04-25 20:23 32.31692 -64.71402 3510 ft 253 kts 186°
2026-04-25 20:23 32.29949 -64.71541 4666 ft 252 kts 192°
2026-04-25 20:24 32.28246 -64.72036 5810 ft 249 kts 201°
2026-04-25 20:24 32.26515 -64.72652 6522 ft 269 kts 201°
2026-04-25 20:24 32.24654 -64.73188 7370 ft 283 kts 196°
2026-04-25 20:24 32.22668 -64.73638 8247 ft 297 kts 195°
2026-04-25 20:25 32.20601 -64.74129 9146 ft 309 kts 196°
2026-04-25 20:25 32.18467 -64.74682 10066 ft 317 kts 197°
2026-04-25 20:25 32.16294 -64.75240 10901 ft 323 kts 196°
2026-04-25 20:25 32.14079 -64.75791 11760 ft 327 kts 196°
2026-04-25 20:26 32.11841 -64.76348 12636 ft 331 kts 196°
2026-04-25 20:26 32.09571 -64.76920 13533 ft 335 kts 196°
2026-04-25 20:26 32.07290 -64.77495 14372 ft 337 kts 196°
2026-04-25 20:26 32.04990 -64.78072 15195 ft 339 kts 196°
2026-04-25 20:27 32.02671 -64.78653 16037 ft 342 kts 196°
2026-04-25 20:27 32.00399 -64.79219 16885 ft 328 kts 196°
2026-04-25 20:27 31.98155 -64.79784 17764 ft 332 kts 196°
2026-04-25 20:27 31.95891 -64.80355 18611 ft 335 kts 196°
2026-04-25 20:28 31.93596 -64.80929 19411 ft 338 kts 196°
2026-04-25 20:28 31.91282 -64.81506 20234 ft 341 kts 195°
2026-04-25 20:28 31.88948 -64.82091 21086 ft 344 kts 195°
2026-04-25 20:28 31.86603 -64.82678 21957 ft 346 kts 195°
2026-04-25 20:29 31.84246 -64.83266 22861 ft 348 kts 195°
2026-04-25 20:29 31.81902 -64.83851 23737 ft 349 kts 195°
2026-04-25 20:29 31.79526 -64.84444 24519 ft 349 kts 195°
2026-04-25 20:29 31.77148 -64.85038 25317 ft 349 kts 195°
2026-04-25 20:30 31.74780 -64.85628 26139 ft 348 kts 195°
2026-04-25 20:30 31.72411 -64.86218 26985 ft 347 kts 195°
2026-04-25 20:30 31.70054 -64.86805 27855 ft 345 kts 195°
2026-04-25 20:30 31.67707 -64.87390 28674 ft 345 kts 195°
2026-04-25 20:31 31.65355 -64.87976 29400 ft 347 kts 195°
2026-04-25 20:31 31.62988 -64.88565 30145 ft 349 kts 195°
2026-04-25 20:31 31.60601 -64.89158 30796 ft 349 kts 195°
2026-04-25 20:31 31.58225 -64.89748 31461 ft 350 kts 195°
2026-04-25 20:32 31.55847 -64.90339 32141 ft 349 kts 195°
2026-04-25 20:32 31.53470 -64.90928 32841 ft 348 kts 195°
2026-04-25 20:32 31.51107 -64.91514 33552 ft 347 kts 195°
2026-04-25 20:32 31.48754 -64.92098 34242 ft 345 kts 195°
2026-04-25 20:33 31.46413 -64.92678 34878 ft 343 kts 195°
2026-04-25 20:33 31.44064 -64.93261 35341 ft 347 kts 196°
2026-04-25 20:33 31.41685 -64.93851 35822 ft 350 kts 196°
2026-04-25 20:33 31.40105 -64.94242 36147 ft 352 kts 196°
2026-04-25 20:34 31.36887 -64.95037 36817 ft 355 kts 197°
2026-04-25 20:34 31.34464 -64.95636 37337 ft 357 kts 197°
2026-04-25 20:34 31.32031 -64.96237 37869 ft 358 kts 197°
2026-04-25 20:34 31.29587 -64.96840 38417 ft 359 kts 197°
2026-04-25 20:35 31.27137 -64.97445 38913 ft 360 kts 197°
2026-04-25 20:35 31.24719 -64.98041 39368 ft 360 kts 197°
2026-04-25 20:35 31.22238 -64.98653 39845 ft 360 kts 197°
2026-04-25 20:35 31.19827 -64.99247 40321 ft 359 kts 198°
2026-04-25 20:36 31.17382 -64.99849 40814 ft 358 kts 198°
2026-04-25 20:36 31.14947 -65.00448 41316 ft 357 kts 198°
2026-04-25 20:36 31.12521 -65.01045 41829 ft 355 kts 198°
2026-04-25 20:36 31.10110 -65.01637 42351 ft 352 kts 198°
2026-04-25 20:37 31.07725 -65.02223 42868 ft 350 kts 198°
2026-04-25 20:37 31.05317 -65.02818 42967 ft 359 kts 198°
2026-04-25 20:37 31.00289 -65.04056 43004 ft 379 kts 198°
2026-04-25 20:38 30.95000 -65.05350 43003 ft 399 kts 197°
2026-04-25 20:38 30.89417 -65.06718 43003 ft 418 kts 197°
2026-04-25 20:39 30.83599 -65.08140 43003 ft 437 kts 197°
2026-04-25 20:39 30.78571 -65.09369 43003 ft 451 kts 197°
2026-04-25 20:40 30.71308 -65.11140 43001 ft 466 kts 197°
2026-04-25 20:40 30.64896 -65.12701 42998 ft 475 kts 197°
2026-04-25 20:41 30.58374 -65.14287 43004 ft 481 kts 197°
2026-04-25 20:41 30.51809 -65.15882 42999 ft 485 kts 196°
2026-04-25 20:42 30.45188 -65.17488 43000 ft 485 kts 196°
2026-04-25 20:42 30.38580 -65.19089 42997 ft 485 kts 196°
2026-04-25 20:43 30.31975 -65.20687 42995 ft 485 kts 196°
2026-04-25 20:43 30.25367 -65.22284 42990 ft 485 kts 196°
2026-04-25 20:44 30.18756 -65.23879 43022 ft 485 kts 196°
2026-04-25 20:44 30.12145 -65.25473 43018 ft 485 kts 196°
2026-04-25 20:45 30.05590 -65.27050 43014 ft 485 kts 196°
2026-04-25 20:45 29.98964 -65.28642 43012 ft 485 kts 196°
2026-04-25 20:46 29.92346 -65.30230 43015 ft 486 kts 196°
2026-04-25 20:46 29.85718 -65.31819 43014 ft 486 kts 196°
2026-04-25 20:47 29.79083 -65.33407 43014 ft 486 kts 196°
2026-04-25 20:47 29.72453 -65.34991 43016 ft 487 kts 196°
2026-04-25 20:48 29.65812 -65.36576 43011 ft 487 kts 196°
2026-04-25 20:48 29.59221 -65.38147 43012 ft 487 kts 196°
2026-04-25 20:49 29.52574 -65.39730 43014 ft 487 kts 196°
2026-04-25 20:49 29.45947 -65.41305 43015 ft 487 kts 196°
2026-04-25 20:50 29.39518 -65.43518 43015 ft 479 kts 206°
2026-04-25 20:50 29.33359 -65.46448 43033 ft 479 kts 206°
2026-04-25 20:51 29.27189 -65.49354 43029 ft 479 kts 206°
2026-04-25 20:51 29.21018 -65.52278 43022 ft 479 kts 206°
2026-04-25 20:52 29.15896 -65.54688 43026 ft 479 kts 206°
2026-04-25 20:52 29.08686 -65.58088 43008 ft 479 kts 206°
2026-04-25 20:53 29.02553 -65.60972 43005 ft 479 kts 206°
2026-04-25 20:53 28.96349 -65.63888 43002 ft 479 kts 206°
2026-04-25 20:54 28.90185 -65.66780 43005 ft 479 kts 206°
2026-04-25 20:54 28.84012 -65.69673 43017 ft 479 kts 206°
2026-04-25 20:55 28.77905 -65.72531 43012 ft 479 kts 206°
2026-04-25 20:55 28.71712 -65.75426 43014 ft 479 kts 206°
2026-04-25 20:56 28.65542 -65.78306 43012 ft 479 kts 206°
2026-04-25 20:56 28.59394 -65.81173 43011 ft 479 kts 206°
2026-04-25 20:57 28.53222 -65.84047 43007 ft 478 kts 206°
2026-04-25 20:57 28.47059 -65.86913 43007 ft 478 kts 206°
2026-04-25 20:58 28.40900 -65.89774 43010 ft 478 kts 206°
2026-04-25 20:58 28.34734 -65.92634 43009 ft 478 kts 206°
2026-04-25 20:59 28.29617 -65.95005 43011 ft 478 kts 206°
2026-04-25 20:59 28.23448 -65.97860 43010 ft 478 kts 206°
2026-04-25 21:00 28.18337 -66.00223 43011 ft 478 kts 206°
2026-04-25 21:01 28.08068 -66.04963 43005 ft 477 kts 206°
2026-04-25 21:01 28.01922 -66.07795 43004 ft 477 kts 206°
2026-04-25 21:02 27.95769 -66.10627 43002 ft 477 kts 206°
2026-04-25 21:02 27.89661 -66.13435 43002 ft 477 kts 206°
2026-04-25 21:03 27.83510 -66.16259 43000 ft 477 kts 206°
2026-04-25 21:03 27.77358 -66.19080 43012 ft 477 kts 206°
2026-04-25 21:04 27.71206 -66.21898 43007 ft 477 kts 206°
2026-04-25 21:04 27.65090 -66.24695 43007 ft 477 kts 206°
2026-04-25 21:05 27.58936 -66.27507 43005 ft 477 kts 206°
2026-04-25 21:05 27.52784 -66.30314 43001 ft 477 kts 206°
2026-04-25 21:06 27.46628 -66.33120 43003 ft 477 kts 206°
2026-04-25 21:06 27.40465 -66.35925 42999 ft 477 kts 206°
2026-04-25 21:07 27.34316 -66.38721 42995 ft 476 kts 206°
2026-04-25 21:07 27.28173 -66.41511 42999 ft 476 kts 206°
2026-04-25 21:08 27.22021 -66.44302 42996 ft 477 kts 206°
2026-04-25 21:08 27.15905 -66.47073 42995 ft 477 kts 206°
2026-04-25 21:09 27.06673 -66.51249 42994 ft 477 kts 206°
2026-04-25 21:09 27.00513 -66.54031 42992 ft 477 kts 206°
2026-04-25 21:10 26.94349 -66.56812 42987 ft 477 kts 206°
2026-04-25 21:10 26.88217 -66.59575 42984 ft 477 kts 206°
2026-04-25 21:11 26.82067 -66.62344 42985 ft 477 kts 206°
2026-04-25 21:11 26.75915 -66.65109 42985 ft 476 kts 206°
2026-04-25 21:12 26.69764 -66.67872 42987 ft 476 kts 206°
2026-04-25 21:12 26.64652 -66.70165 42985 ft 476 kts 206°
2026-04-25 21:13 26.57489 -66.73375 42978 ft 476 kts 207°
2026-04-25 21:13 26.51335 -66.76128 42980 ft 476 kts 207°
2026-04-25 21:14 26.45184 -66.78877 42979 ft 476 kts 207°
2026-04-25 21:14 26.39040 -66.81620 42978 ft 476 kts 207°
2026-04-25 21:15 26.32887 -66.84365 42978 ft 476 kts 207°
2026-04-25 21:15 26.26746 -66.87100 42975 ft 475 kts 207°
2026-04-25 21:16 26.20600 -66.89835 42982 ft 475 kts 207°
2026-04-25 21:16 26.14465 -66.92561 42976 ft 475 kts 207°
2026-04-25 21:17 26.08328 -66.95285 42974 ft 474 kts 207°
2026-04-25 21:17 26.02196 -66.98005 42974 ft 474 kts 207°
2026-04-25 21:18 25.96068 -67.00719 42975 ft 474 kts 207°
2026-04-25 21:18 25.89982 -67.03411 42971 ft 474 kts 207°
2026-04-25 21:19 25.83855 -67.06119 42969 ft 473 kts 207°
2026-04-25 21:19 25.77732 -67.08822 42967 ft 473 kts 207°
2026-04-25 21:20 25.72647 -67.11064 42968 ft 473 kts 207°
2026-04-25 21:20 25.65495 -67.14214 42966 ft 473 kts 207°
2026-04-25 21:21 25.59422 -67.16886 42968 ft 472 kts 207°
2026-04-25 21:21 25.53313 -67.19571 42963 ft 472 kts 207°
2026-04-25 21:22 25.47198 -67.22256 42962 ft 472 kts 207°
2026-04-25 21:22 25.41095 -67.24932 42954 ft 471 kts 208°
2026-04-25 21:23 25.34993 -67.27605 42955 ft 471 kts 208°
2026-04-25 21:23 25.28901 -67.30271 42956 ft 471 kts 208°
2026-04-25 21:24 25.22844 -67.32918 42960 ft 470 kts 208°
2026-04-25 21:24 25.16757 -67.35576 42955 ft 470 kts 208°
2026-04-25 21:25 25.10672 -67.38230 42956 ft 470 kts 208°
2026-04-25 21:25 25.04597 -67.40877 42957 ft 469 kts 208°
2026-04-25 21:26 24.98531 -67.43516 42955 ft 469 kts 208°
2026-04-25 21:26 24.92465 -67.46154 42950 ft 468 kts 208°
2026-04-25 21:27 24.86411 -67.48784 42948 ft 468 kts 208°
2026-04-25 21:27 24.80353 -67.51412 42948 ft 467 kts 208°
2026-04-25 21:28 24.74307 -67.54031 42949 ft 467 kts 208°
2026-04-25 21:28 24.68264 -67.56648 42945 ft 466 kts 208°
2026-04-25 21:29 24.62265 -67.59243 42949 ft 466 kts 208°
2026-04-25 21:29 24.56235 -67.61847 42942 ft 465 kts 208°
2026-04-25 21:30 24.50210 -67.64448 42945 ft 465 kts 208°
2026-04-25 21:30 24.45169 -67.66621 42944 ft 464 kts 208°
2026-04-25 21:31 24.38178 -67.69632 42947 ft 464 kts 209°
2026-04-25 21:31 24.32174 -67.72216 42943 ft 463 kts 209°
2026-04-25 21:32 24.26165 -67.74799 42937 ft 463 kts 209°
2026-04-25 21:32 24.20165 -67.77353 42937 ft 462 kts 209°
2026-04-25 21:33 24.14213 -67.79889 42939 ft 461 kts 209°
2026-04-25 21:33 24.08232 -67.82433 42932 ft 461 kts 209°
2026-04-25 21:34 24.02260 -67.84972 42935 ft 460 kts 209°
2026-04-25 21:34 23.96287 -67.87508 42937 ft 460 kts 209°
2026-04-25 21:35 23.90310 -67.90043 42936 ft 460 kts 209°
2026-04-25 21:35 23.84343 -67.92572 42928 ft 460 kts 209°
2026-04-25 21:36 23.78401 -67.95087 42925 ft 459 kts 209°
2026-04-25 21:36 23.72449 -67.97605 42922 ft 459 kts 209°
2026-04-25 21:37 23.67486 -67.99702 42922 ft 459 kts 209°
2026-04-25 21:37 23.60525 -68.02641 42918 ft 459 kts 209°
2026-04-25 21:38 23.54560 -68.05156 42918 ft 459 kts 210°
2026-04-25 21:38 23.48606 -68.07664 42919 ft 459 kts 210°
2026-04-25 21:39 23.42690 -68.10154 42916 ft 458 kts 210°
2026-04-25 21:39 23.36742 -68.12655 42908 ft 458 kts 210°
2026-04-25 21:40 23.30780 -68.15160 42913 ft 459 kts 210°
2026-04-25 21:40 23.24823 -68.17659 42912 ft 459 kts 210°
2026-04-25 21:41 23.18858 -68.20160 42908 ft 459 kts 210°
2026-04-25 21:41 23.12897 -68.22657 42906 ft 459 kts 210°
2026-04-25 21:42 23.06937 -68.25151 42909 ft 459 kts 210°
2026-04-25 21:42 23.00973 -68.27644 42908 ft 459 kts 210°
2026-04-25 21:43 22.95005 -68.30137 42904 ft 459 kts 209°
2026-04-25 21:43 22.89036 -68.32627 42906 ft 460 kts 209°
2026-04-25 21:44 22.83107 -68.35099 42901 ft 460 kts 209°
2026-04-25 21:45 22.74134 -68.38835 42904 ft 460 kts 209°
2026-04-25 21:45 22.68158 -68.41321 42904 ft 460 kts 209°
2026-04-25 21:46 22.62185 -68.43803 42910 ft 460 kts 209°
2026-04-25 21:46 22.56210 -68.46283 42914 ft 460 kts 209°
2026-04-25 21:47 22.51249 -68.48341 42903 ft 460 kts 209°
2026-04-25 21:47 22.45275 -68.50816 42904 ft 459 kts 209°
2026-04-25 21:48 22.39303 -68.53289 42905 ft 460 kts 209°
2026-04-25 21:48 22.33330 -68.55759 42905 ft 459 kts 209°
2026-04-25 21:49 22.27353 -68.58229 42909 ft 459 kts 209°
2026-04-25 21:49 22.21380 -68.60695 42908 ft 460 kts 209°
2026-04-25 21:50 22.15409 -68.63159 42907 ft 459 kts 209°
2026-04-25 21:50 22.09476 -68.65604 42904 ft 460 kts 209°
2026-04-25 21:51 22.03493 -68.68067 42904 ft 460 kts 209°
2026-04-25 21:51 21.97508 -68.70530 42902 ft 460 kts 208°
2026-04-25 21:52 21.91514 -68.72993 42904 ft 461 kts 208°
2026-04-25 21:52 21.85516 -68.75456 42902 ft 461 kts 208°
2026-04-25 21:53 21.79520 -68.77916 42905 ft 461 kts 208°
2026-04-25 21:53 21.73552 -68.80363 42910 ft 462 kts 208°
2026-04-25 21:54 21.67550 -68.82821 42908 ft 462 kts 208°
2026-04-25 21:54 21.61527 -68.85285 42907 ft 462 kts 208°
2026-04-25 21:55 21.55512 -68.87744 42907 ft 463 kts 208°
2026-04-25 21:55 21.49493 -68.90203 42903 ft 463 kts 208°
2026-04-25 21:56 21.43464 -68.92663 42903 ft 463 kts 208°
2026-04-25 21:56 21.37467 -68.95108 42906 ft 463 kts 208°
2026-04-25 21:57 21.31402 -68.97574 42910 ft 464 kts 208°
2026-04-25 21:57 21.25397 -69.00008 42903 ft 464 kts 208°
2026-04-25 21:58 21.19378 -69.02496 42904 ft 465 kts 208°
2026-04-25 21:58 21.13313 -69.04923 42911 ft 465 kts 208°
2026-04-25 21:59 21.07264 -69.07399 42903 ft 465 kts 208°
2026-04-25 21:59 21.01209 -69.09842 42909 ft 465 kts 208°
2026-04-25 22:00 20.92206 -69.13704 42906 ft 459 kts 213°
2026-04-25 22:00 20.86965 -69.17440 42900 ft 450 kts 225°
2026-04-25 22:01 20.82674 -69.22222 42911 ft 443 kts 235°
2026-04-25 22:01 20.79492 -69.26517 42924 ft 443 kts 234°
2026-04-25 22:02 20.75020 -69.32511 42926 ft 444 kts 234°
2026-04-25 22:02 20.71179 -69.37677 42926 ft 444 kts 234°
2026-04-25 22:03 20.67330 -69.42837 42921 ft 444 kts 234°
2026-04-25 22:03 20.63482 -69.47998 42920 ft 444 kts 234°
2026-04-25 22:04 20.59630 -69.53155 42919 ft 445 kts 234°
2026-04-25 22:04 20.55779 -69.58309 42919 ft 445 kts 234°
2026-04-25 22:05 20.51908 -69.63469 42916 ft 445 kts 233°
2026-04-25 22:05 20.47852 -69.68489 42918 ft 446 kts 232°
2026-04-25 22:06 20.43805 -69.73520 42918 ft 447 kts 232°
2026-04-25 22:06 20.39715 -69.78488 42913 ft 447 kts 232°
2026-04-25 22:07 20.36300 -69.82646 42912 ft 447 kts 232°
2026-04-25 22:07 20.31536 -69.88452 42913 ft 448 kts 232°
2026-04-25 22:08 20.27430 -69.93441 42915 ft 448 kts 232°
2026-04-25 22:08 20.23241 -69.98360 42907 ft 450 kts 227°
2026-04-25 22:09 20.18202 -70.02407 42913 ft 458 kts 216°
2026-04-25 22:09 20.15448 -70.03921 42899 ft 435 kts 210°
2026-04-25 22:09 20.12673 -70.05067 42755 ft 420 kts 206°
2026-04-25 22:10 20.09838 -70.05900 41601 ft 429 kts 199°
2026-04-25 22:10 20.06842 -70.06413 40020 ft 444 kts 193°
2026-04-25 22:10 20.03729 -70.06671 38306 ft 456 kts 191°
2026-04-25 22:10 20.00523 -70.06930 36429 ft 463 kts 192°
2026-04-25 22:11 19.97297 -70.07211 34720 ft 468 kts 192°
2026-04-25 22:11 19.94053 -70.07491 33728 ft 461 kts 191°
2026-04-25 22:11 19.90938 -70.07734 33189 ft 439 kts 191°
2026-04-25 22:11 19.87921 -70.07990 32372 ft 430 kts 192°
2026-04-25 22:12 19.84998 -70.08252 31608 ft 423 kts 192°
2026-04-25 22:12 19.82081 -70.08501 30860 ft 417 kts 192°
2026-04-25 22:12 19.79175 -70.08744 30126 ft 432 kts 192°
2026-04-25 22:12 19.77088 -70.08933 29545 ft 453 kts 191°
2026-04-25 22:13 19.72951 -70.09272 28488 ft 447 kts 190°
2026-04-25 22:13 19.69856 -70.09517 27697 ft 443 kts 190°
2026-04-25 22:13 19.66814 -70.09779 26911 ft 439 kts 190°
2026-04-25 22:13 19.63774 -70.10046 26134 ft 435 kts 189°
2026-04-25 22:14 19.60760 -70.10299 25363 ft 432 kts 189°
2026-04-25 22:14 19.57767 -70.10544 24595 ft 430 kts 189°
2026-04-25 22:14 19.54793 -70.10795 23833 ft 427 kts 188°
2026-04-25 22:14 19.51961 -70.11037 23054 ft 425 kts 188°
2026-04-25 22:15 19.50501 -70.11161 22693 ft 422 kts 188°
2026-04-25 22:16 19.48751 -70.11307 22242 ft 418 kts 188°
2026-04-25 22:16 19.46306 -70.11510 21614 ft 413 kts 188°
2026-04-25 22:16 19.43489 -70.11746 20888 ft 408 kts 187°
2026-04-25 22:17 19.40678 -70.11984 20184 ft 404 kts 187°
2026-04-25 22:17 19.37890 -70.12219 19475 ft 400 kts 187°
2026-04-25 22:17 19.35124 -70.12451 18769 ft 397 kts 187°
2026-04-25 22:17 19.32379 -70.12681 18050 ft 395 kts 187°
2026-04-25 22:18 19.30779 -70.12815 17618 ft 392 kts 187°
2026-04-25 22:18 19.28076 -70.13042 16929 ft 387 kts 187°
2026-04-25 22:18 19.25406 -70.13266 16251 ft 382 kts 187°
2026-04-25 22:18 19.22765 -70.13488 15579 ft 378 kts 186°
2026-04-25 22:19 19.20172 -70.13705 14915 ft 374 kts 186°
2026-04-25 22:19 19.17586 -70.13922 14259 ft 371 kts 186°
2026-04-25 22:19 19.15015 -70.14112 13589 ft 367 kts 184°
2026-04-25 22:19 19.12539 -70.13676 13240 ft 355 kts 164°
2026-04-25 22:20 19.10318 -70.12731 13285 ft 332 kts 159°
2026-04-25 22:20 19.08234 -70.11763 12911 ft 327 kts 158°
2026-04-25 22:20 19.06135 -70.10782 12240 ft 332 kts 158°
2026-04-25 22:20 19.04001 -70.09804 11357 ft 331 kts 158°
2026-04-25 22:21 19.02041 -70.08905 10278 ft 288 kts 158°
2026-04-25 22:21 19.00282 -70.08096 9212 ft 265 kts 158°
2026-04-25 22:21 18.98726 -70.07381 8924 ft 226 kts 159°
2026-04-25 22:21 18.97390 -70.06767 8771 ft 196 kts 159°
2026-04-25 22:22 18.96168 -70.06209 8492 ft 195 kts 159°
2026-04-25 22:22 18.94879 -70.05623 8141 ft 208 kts 158°
2026-04-25 22:22 18.93512 -70.04996 7784 ft 220 kts 158°
2026-04-25 22:22 18.92066 -70.04331 7390 ft 231 kts 158°
2026-04-25 22:23 18.90563 -70.03641 6976 ft 242 kts 158°
2026-04-25 22:23 18.88983 -70.02917 6535 ft 251 kts 157°
2026-04-25 22:23 18.87354 -70.02170 6064 ft 258 kts 157°
2026-04-25 22:23 18.85690 -70.01407 5591 ft 263 kts 156°
2026-04-25 22:24 18.83997 -70.00631 5117 ft 267 kts 156°
2026-04-25 22:24 18.82287 -69.99848 4641 ft 270 kts 156°
2026-04-25 22:24 18.80591 -69.99071 4154 ft 259 kts 156°
2026-04-25 22:24 18.78971 -69.98329 3701 ft 252 kts 156°
2026-04-25 22:25 18.77365 -69.97593 3261 ft 250 kts 156°
2026-04-25 22:25 18.77223 -69.97528 3223 ft 250 kts 157°
2026-04-25 22:25 18.76275 -69.97094 2958 ft 249 kts 157°
2026-04-25 22:25 18.75751 -69.96855 2809 ft 249 kts 157°
2026-04-25 22:26 18.74106 -69.96408 2423 ft 241 kts 179°
2026-04-25 22:26 18.72518 -69.96595 2420 ft 223 kts 187°
2026-04-25 22:26 18.71010 -69.96788 2280 ft 213 kts 186°
2026-04-25 22:26 18.69571 -69.96967 2096 ft 204 kts 186°
2026-04-25 22:27 18.68165 -69.97148 1940 ft 204 kts 187°
2026-04-25 22:27 18.66781 -69.97329 1737 ft 191 kts 186°
2026-04-25 22:27 18.65573 -69.97488 1560 ft 165 kts 187°
2026-04-25 22:27 18.64486 -69.97630 1338 ft 148 kts 186°
2026-04-25 22:28 18.63527 -69.97754 1181 ft 130 kts 187°
2026-04-25 22:28 18.62646 -69.97870 957 ft 124 kts 186°
2026-04-25 22:28 18.61806 -69.97979 855 ft 122 kts 189°
2026-04-25 22:28 18.60977 -69.98086 708 ft 118 kts 188°
2026-04-25 22:29 18.60157 -69.98193 551 ft 119 kts 186°
2026-04-25 22:29 18.59344 -69.98299 402 ft 117 kts 187°
2026-04-25 22:29 18.58514 -69.98413 228 ft 123 kts 185°
2026-04-25 22:30 18.57085 -69.98588 94 ft 64 kts 186°
2026-04-25 22:30 18.56795 -69.98620 94 ft 28 kts 186°
2026-04-25 22:30 18.56586 -69.98639 94 ft 27 kts 173°
2026-04-25 22:30 18.56517 -69.98616 96 ft 8 kts 153°
2026-04-25 22:31 18.56555 -69.98650 97 ft 19 kts
2026-04-25 22:31 18.56694 -69.98631 95 ft 20 kts
2026-04-25 22:31 18.56850 -69.98613 95 ft 26 kts
2026-04-25 22:31 18.57032 -69.98591 94 ft 26 kts
2026-04-25 22:32 18.57205 -69.98573 95 ft 24 kts
2026-04-25 22:32 18.57334 -69.98484 98 ft 21 kts 36°
2026-04-25 22:32 18.57412 -69.98425 99 ft 20 kts 36°
2026-04-25 22:32 18.57524 -69.98339 99 ft 12 kts 36°
2026-04-25 22:33 18.57572 -69.98327 99 ft 11 kts
2026-04-25 22:33 18.57583 -69.98326 99 ft 0 kts
2026-04-25 22:34 18.57598 -69.98323 99 ft 7 kts
2026-04-25 22:34 18.57629 -69.98359 99 ft 5 kts 327°
2026-04-25 22:35 18.57645 -69.98360 99 ft 0 kts 24°
2026-04-25 22:35 18.57645 -69.98359 99 ft 0 kts 46°
2026-04-25 22:35 18.57645 -69.98350 99 ft 0 kts 92°